IRIDIUM 24 [-] (25105 NORAD) Tracking and Keplerian Element Data

This shows tracking and keplerian element data for the satellite.

Feedback or suggestion? Click here.




ElementValue
Catalog25105
NameIRIDIUM 24 [-]
Epoch Orbit10133
Epoch Day348.56287768
Epoch Year2018
RAAN5.1224
Inclination86.3911
Eccentricity0.0011304
Argument of Perigee0.7405
Mean Anonmoly359.3809
Mean Motion14.39956607
Decay Rate8.2E-07
L11 25105U 97082B 18348.56287768 .00000082 00000-0 19846-4 0 9994
L22 25105 86.3911 5.1224 0011304 0.7405 359.3809 14.39956607101337

Live tracking and technical data element details for IRIDIUM 24 [-] (NORAD 25105). IRIDIUM 24 [-] can be tracked NOW for your location showing map with azimuth and elevation plus other details from your city location.

Track the satellite on the map from your city or location and see movement details for azimuth, elevation, latitude, longitude, range, height, and movement on the map or in text.







IsCatalogInMostPopularTable: catalog: 25105, numindb: 46
Update: records affected: 1



GetName: 25105 IRIDIUM 24 [-]

Hit Count: updated at: Sat, 15 Dec 2018 18:51:45 GMT